SAS46M EKCH-ESSA

Flight info

Callsign SAS46M
Flight time 0h 59m
Altitude 37000
Route KEMAX DCT RASMU DCT DETSO N873 ARS T317 ELTOK
Aircraft A320/M-SDE3FGHIRWY/LB1

Departure

Time 2026-04-25 22:39
Airport Copenhagen Kastrup Airport (EKCH)

Arrival

Time 2026-04-25 23:38
Airport Stockholm-Arlanda Airport (ESSA)
Time Latitude Longitude Altitude Speed Heading
2026-04-25 22:10 55.62565 12.64514 17 ft 0 kts 16°
2026-04-25 22:28 55.62545 12.64503 10 ft 4 kts 20°
2026-04-25 22:28 55.62521 12.64483 26 ft 4 kts 38°
2026-04-25 22:28 55.62507 12.64453 18 ft 4 kts 98°
2026-04-25 22:29 55.62509 12.64440 18 ft 0 kts 123°
2026-04-25 22:32 55.62506 12.64448 18 ft 2 kts 123°
2026-04-25 22:32 55.62490 12.64491 18 ft 6 kts 123°
2026-04-25 22:32 55.62463 12.64564 17 ft 8 kts 123°
2026-04-25 22:32 55.62427 12.64662 17 ft 11 kts 123°
2026-04-25 22:33 55.62381 12.64784 17 ft 13 kts 122°
2026-04-25 22:33 55.62328 12.64929 17 ft 15 kts 123°
2026-04-25 22:33 55.62266 12.65098 18 ft 18 kts 123°
2026-04-25 22:33 55.62163 12.65129 19 ft 19 kts 214°
2026-04-25 22:34 55.62047 12.64995 18 ft 21 kts 213°
2026-04-25 22:34 55.61914 12.64841 17 ft 24 kts 213°
2026-04-25 22:34 55.61766 12.64668 19 ft 27 kts 214°
2026-04-25 22:34 55.61609 12.64486 19 ft 26 kts 212°
2026-04-25 22:35 55.61460 12.64318 17 ft 25 kts 213°
2026-04-25 22:35 55.61318 12.64151 17 ft 24 kts 211°
2026-04-25 22:35 55.61170 12.63985 18 ft 26 kts 213°
2026-04-25 22:35 55.61033 12.63828 17 ft 23 kts 213°
2026-04-25 22:36 55.60918 12.63695 17 ft 17 kts 213°
2026-04-25 22:36 55.60813 12.63589 17 ft 17 kts 190°
2026-04-25 22:36 55.60736 12.63689 17 ft 1 kts 131°
2026-04-25 22:37 55.60732 12.63696 17 ft 2 kts 131°
2026-04-25 22:37 55.60715 12.63731 17 ft 5 kts 131°
2026-04-25 22:37 55.60690 12.63798 18 ft 8 kts 110°
2026-04-25 22:37 55.60699 12.63899 19 ft 10 kts 60°
2026-04-25 22:38 55.60765 12.64010 21 ft 23 kts 41°
2026-04-25 22:38 55.61085 12.64503 17 ft 96 kts 41°
2026-04-25 22:38 55.61736 12.65504 19 ft 149 kts 41°
2026-04-25 22:38 55.62546 12.66752 442 ft 152 kts 35°
2026-04-25 22:39 55.63331 12.67973 1059 ft 153 kts 35°
2026-04-25 22:39 55.64167 12.69267 1430 ft 170 kts 34°
2026-04-25 22:39 55.65117 12.70727 1729 ft 192 kts 36°
2026-04-25 22:39 55.66188 12.72332 2115 ft 212 kts 35°
2026-04-25 22:40 55.67375 12.74094 2650 ft 230 kts 35°
2026-04-25 22:40 55.68616 12.75946 3536 ft 235 kts 36°
2026-04-25 22:40 55.69877 12.77838 4452 ft 240 kts 36°
2026-04-25 22:40 55.71164 12.79769 5331 ft 245 kts 36°
2026-04-25 22:41 55.72481 12.81738 6198 ft 250 kts 36°
2026-04-25 22:41 55.73823 12.83746 7027 ft 255 kts 35°
2026-04-25 22:41 55.75180 12.85803 7879 ft 258 kts 36°
2026-04-25 22:41 55.76519 12.87894 8734 ft 261 kts 36°
2026-04-25 22:42 55.77887 12.90054 9595 ft 263 kts 35°
2026-04-25 22:42 55.79266 12.92235 10349 ft 269 kts 34°
2026-04-25 22:42 55.80728 12.94528 10576 ft 292 kts 34°
2026-04-25 22:42 55.82319 12.97016 10726 ft 316 kts 35°
2026-04-25 22:43 55.84015 12.99677 11038 ft 331 kts 35°
2026-04-25 22:43 55.85748 13.02422 11697 ft 335 kts 34°
2026-04-25 22:43 55.87491 13.05197 12438 ft 337 kts 34°
2026-04-25 22:43 55.89242 13.07984 13209 ft 338 kts 34°
2026-04-25 22:44 55.91009 13.10791 13912 ft 342 kts 34°
2026-04-25 22:44 55.92798 13.13627 14477 ft 345 kts 33°
2026-04-25 22:44 55.94599 13.16486 15108 ft 347 kts 33°
2026-04-25 22:44 55.96388 13.19336 15756 ft 348 kts 32°
2026-04-25 22:45 55.98197 13.22221 16424 ft 349 kts 31°
2026-04-25 22:45 56.00009 13.25120 17112 ft 350 kts 31°
2026-04-25 22:45 56.01826 13.28027 17806 ft 351 kts 30°
2026-04-25 22:45 56.03648 13.30937 18485 ft 352 kts 30°
2026-04-25 22:46 56.05482 13.33873 19088 ft 353 kts 29°
2026-04-25 22:46 56.07311 13.36806 19698 ft 354 kts 29°
2026-04-25 22:46 56.09145 13.39746 20300 ft 354 kts 29°
2026-04-25 22:46 56.10990 13.42678 20873 ft 352 kts 26°
2026-04-25 22:47 56.12966 13.45103 21484 ft 339 kts 18°
2026-04-25 22:47 56.15056 13.46781 22018 ft 328 kts 10°
2026-04-25 22:47 56.17228 13.48002 22535 ft 327 kts
2026-04-25 22:47 56.19401 13.49213 23039 ft 327 kts
2026-04-25 22:48 56.21574 13.50428 23535 ft 327 kts
2026-04-25 22:48 56.23755 13.51651 23932 ft 328 kts
2026-04-25 22:48 56.25940 13.52882 24282 ft 330 kts
2026-04-25 22:48 56.28139 13.54125 24613 ft 332 kts
2026-04-25 22:49 56.30349 13.55382 24939 ft 334 kts
2026-04-25 22:49 56.32568 13.56649 25259 ft 336 kts
2026-04-25 22:49 56.34810 13.57927 25578 ft 338 kts
2026-04-25 22:49 56.37061 13.59204 25966 ft 340 kts
2026-04-25 22:50 56.39326 13.60487 26297 ft 342 kts
2026-04-25 22:50 56.41600 13.61777 26615 ft 344 kts
2026-04-25 22:50 56.43113 13.62640 26833 ft 345 kts
2026-04-25 22:50 56.46140 13.64381 27425 ft 343 kts
2026-04-25 22:51 56.48414 13.65691 27864 ft 342 kts
2026-04-25 22:51 56.50679 13.66993 28332 ft 341 kts
2026-04-25 22:51 56.52183 13.67857 28641 ft 341 kts
2026-04-25 22:51 56.55195 13.69587 29236 ft 340 kts
2026-04-25 22:52 56.56694 13.70450 29543 ft 339 kts
2026-04-25 22:52 56.58937 13.71742 30011 ft 338 kts
2026-04-25 22:52 56.61180 13.73031 30410 ft 338 kts
2026-04-25 22:52 56.63423 13.74323 30827 ft 338 kts
2026-04-25 22:53 56.65661 13.75615 31186 ft 338 kts
2026-04-25 22:53 56.67911 13.76916 31527 ft 339 kts
2026-04-25 22:53 56.70161 13.78220 31863 ft 340 kts
2026-04-25 22:53 56.72421 13.79534 32211 ft 341 kts
2026-04-25 22:54 56.74660 13.81033 32548 ft 350 kts 15°
2026-04-25 22:54 56.76852 13.83027 32890 ft 352 kts 16°
2026-04-25 22:54 56.79015 13.85040 33227 ft 354 kts 16°
2026-04-25 22:54 56.81202 13.87099 33587 ft 355 kts 16°
2026-04-25 22:55 56.83405 13.89180 33927 ft 356 kts 16°
2026-04-25 22:55 56.85608 13.91266 34224 ft 357 kts 17°
2026-04-25 22:55 56.87818 13.93366 34523 ft 359 kts 17°
2026-04-25 22:55 56.90058 13.95493 34667 ft 364 kts 18°
2026-04-25 22:56 56.92324 13.97639 34820 ft 368 kts 18°
2026-04-25 22:56 56.94607 13.99797 35017 ft 370 kts 18°
2026-04-25 22:56 56.96902 14.01968 35237 ft 372 kts 18°
2026-04-25 22:56 56.99207 14.04156 35451 ft 374 kts 18°
2026-04-25 22:57 57.01496 14.06334 35644 ft 376 kts 18°
2026-04-25 22:57 57.03824 14.08546 35838 ft 378 kts 18°
2026-04-25 22:57 57.06164 14.10766 36039 ft 380 kts 19°
2026-04-25 22:57 57.08518 14.13007 36232 ft 381 kts 19°
2026-04-25 22:58 57.10878 14.15266 36423 ft 383 kts 19°
2026-04-25 22:58 57.13246 14.17541 36650 ft 385 kts 19°
2026-04-25 22:58 57.15633 14.19831 36817 ft 387 kts 20°
2026-04-25 22:58 57.18029 14.22129 36952 ft 390 kts 20°
2026-04-25 22:59 57.22904 14.26814 36977 ft 400 kts 20°
2026-04-25 22:59 57.27853 14.31613 36975 ft 402 kts 20°
2026-04-25 23:00 57.32793 14.36399 36980 ft 402 kts 20°
2026-04-25 23:00 57.37750 14.41206 37023 ft 402 kts 20°
2026-04-25 23:01 57.42729 14.46053 37007 ft 404 kts 20°
2026-04-25 23:01 57.47716 14.50922 37012 ft 405 kts 20°
2026-04-25 23:02 57.52671 14.55784 37016 ft 406 kts 20°
2026-04-25 23:02 57.57684 14.60706 36998 ft 409 kts 21°
2026-04-25 23:03 57.62734 14.65667 37022 ft 410 kts 21°
2026-04-25 23:03 57.67797 14.70672 37002 ft 413 kts 21°
2026-04-25 23:04 57.72891 14.75732 36994 ft 414 kts 22°
2026-04-25 23:04 57.77956 14.80786 36995 ft 415 kts 22°
2026-04-25 23:05 57.83074 14.85915 36999 ft 416 kts 22°
2026-04-25 23:05 57.88183 14.91036 37002 ft 416 kts 22°
2026-04-25 23:06 57.93291 14.96156 37006 ft 416 kts 22°
2026-04-25 23:06 57.98373 15.01285 37009 ft 416 kts 22°
2026-04-25 23:07 58.03476 15.06455 37009 ft 416 kts 22°
2026-04-25 23:07 58.08588 15.11640 37009 ft 416 kts 22°
2026-04-25 23:08 58.13692 15.16830 37038 ft 416 kts 22°
2026-04-25 23:08 58.18784 15.22040 37000 ft 415 kts 22°
2026-04-25 23:09 58.23863 15.27249 36996 ft 415 kts 22°
2026-04-25 23:09 58.28945 15.32483 36996 ft 415 kts 22°
2026-04-25 23:10 58.34026 15.37720 36993 ft 415 kts 22°
2026-04-25 23:10 58.39113 15.42971 37005 ft 416 kts 22°
2026-04-25 23:11 58.44183 15.48232 36959 ft 414 kts 22°
2026-04-25 23:11 58.49206 15.53484 36960 ft 415 kts 22°
2026-04-25 23:12 58.54276 15.58787 36964 ft 415 kts 22°
2026-04-25 23:12 58.59340 15.64108 36970 ft 415 kts 22°
2026-04-25 23:13 58.64404 15.69441 37002 ft 415 kts 22°
2026-04-25 23:13 58.69482 15.74802 36990 ft 416 kts 23°
2026-04-25 23:14 58.74556 15.80178 36978 ft 417 kts 23°
2026-04-25 23:14 58.79634 15.85591 36964 ft 417 kts 23°
2026-04-25 23:15 58.84713 15.91007 36964 ft 417 kts 23°
2026-04-25 23:15 58.89757 15.96393 36956 ft 417 kts 23°
2026-04-25 23:16 58.94841 16.01871 36951 ft 417 kts 23°
2026-04-25 23:16 58.99909 16.07336 36947 ft 418 kts 23°
2026-04-25 23:17 59.04999 16.12841 36949 ft 418 kts 23°
2026-04-25 23:17 59.07544 16.15597 36651 ft 419 kts 24°
2026-04-25 23:17 59.10118 16.18382 35664 ft 427 kts 24°
2026-04-25 23:18 59.12713 16.21196 34985 ft 426 kts 24°
2026-04-25 23:18 59.15301 16.24015 34254 ft 426 kts 23°
2026-04-25 23:18 59.17897 16.26854 33372 ft 427 kts 24°
2026-04-25 23:18 59.20474 16.29681 32626 ft 423 kts 23°
2026-04-25 23:19 59.22999 16.32457 31786 ft 420 kts 23°
2026-04-25 23:19 59.25532 16.35244 31010 ft 415 kts 23°
2026-04-25 23:19 59.28048 16.38010 30141 ft 413 kts 22°
2026-04-25 23:19 59.30531 16.40748 29130 ft 409 kts 22°
2026-04-25 23:20 59.33017 16.43486 28053 ft 407 kts 22°
2026-04-25 23:20 59.35486 16.46207 27140 ft 403 kts 23°
2026-04-25 23:20 59.37923 16.48900 26114 ft 403 kts 23°
2026-04-25 23:20 59.40368 16.51606 25046 ft 404 kts 23°
2026-04-25 23:21 59.42815 16.54319 24041 ft 405 kts 24°
2026-04-25 23:21 59.45265 16.57040 23017 ft 403 kts 24°
2026-04-25 23:21 59.47686 16.59739 22232 ft 396 kts 24°
2026-04-25 23:21 59.50061 16.62402 21461 ft 390 kts 24°
2026-04-25 23:22 59.52400 16.65032 20677 ft 384 kts 24°
2026-04-25 23:22 59.54706 16.67621 19932 ft 380 kts 24°
2026-04-25 23:22 59.56995 16.70187 19180 ft 377 kts 24°
2026-04-25 23:23 59.61500 16.75242 17707 ft 372 kts 25°
2026-04-25 23:23 59.63735 16.77756 17069 ft 367 kts 25°
2026-04-25 23:23 59.65950 16.80256 16348 ft 365 kts 25°
2026-04-25 23:23 59.68153 16.82750 15643 ft 364 kts 25°
2026-04-25 23:24 59.70353 16.85239 14926 ft 363 kts 25°
2026-04-25 23:24 59.72538 16.87713 14232 ft 361 kts 26°
2026-04-25 23:24 59.74711 16.90176 13565 ft 358 kts 26°
2026-04-25 23:24 59.76863 16.92619 12890 ft 354 kts 26°
2026-04-25 23:25 59.78888 16.95337 12262 ft 352 kts 37°
2026-04-25 23:25 59.80510 16.98894 11655 ft 353 kts 50°
2026-04-25 23:25 59.81660 17.03259 11220 ft 351 kts 64°
2026-04-25 23:25 59.82215 17.07916 11072 ft 343 kts 77°
2026-04-25 23:26 59.82249 17.12591 10937 ft 332 kts 85°
2026-04-25 23:26 59.82179 17.17084 10802 ft 319 kts 85°
2026-04-25 23:26 59.82110 17.21360 10675 ft 308 kts 85°
2026-04-25 23:26 59.82044 17.25527 10530 ft 297 kts 84°
2026-04-25 23:27 59.81982 17.29574 10326 ft 290 kts 84°
2026-04-25 23:27 59.81926 17.33562 10064 ft 286 kts 84°
2026-04-25 23:27 59.81870 17.37483 9898 ft 284 kts 84°
2026-04-25 23:27 59.81812 17.41418 9779 ft 285 kts 84°
2026-04-25 23:28 59.81751 17.45344 9640 ft 284 kts 84°
2026-04-25 23:28 59.81689 17.49269 9457 ft 285 kts 84°
2026-04-25 23:28 59.81624 17.53191 9088 ft 284 kts 85°
2026-04-25 23:28 59.81557 17.57114 8697 ft 283 kts 85°
2026-04-25 23:29 59.81488 17.61025 8304 ft 283 kts 85°
2026-04-25 23:29 59.81417 17.64934 7969 ft 281 kts 85°
2026-04-25 23:29 59.81345 17.68815 7587 ft 281 kts 85°
2026-04-25 23:29 59.81276 17.72629 7216 ft 281 kts 85°
2026-04-25 23:30 59.81205 17.76494 6941 ft 277 kts 85°
2026-04-25 23:30 59.81133 17.80309 6584 ft 276 kts 85°
2026-04-25 23:30 59.81061 17.84113 6233 ft 275 kts 85°
2026-04-25 23:30 59.80992 17.87862 5985 ft 269 kts 85°
2026-04-25 23:31 59.80921 17.91570 5667 ft 268 kts 85°
2026-04-25 23:31 59.80852 17.95258 5331 ft 266 kts 85°
2026-04-25 23:31 59.80784 17.98926 5002 ft 266 kts 85°
2026-04-25 23:31 59.80717 18.02582 4737 ft 264 kts 84°
2026-04-25 23:32 59.80359 18.06210 4387 ft 276 kts 108°
2026-04-25 23:32 59.79319 18.09428 4019 ft 283 kts 121°
2026-04-25 23:32 59.78112 18.12522 3685 ft 283 kts 123°
2026-04-25 23:32 59.76894 18.15596 3372 ft 282 kts 123°
2026-04-25 23:33 59.75681 18.18657 3063 ft 281 kts 123°
2026-04-25 23:33 59.74482 18.21686 2986 ft 274 kts 123°
2026-04-25 23:33 59.73284 18.24496 2989 ft 263 kts 135°
2026-04-25 23:33 59.71710 18.26117 3004 ft 252 kts 169°
2026-04-25 23:34 59.70043 18.25948 2984 ft 230 kts 210°
2026-04-25 23:34 59.68953 18.24071 2863 ft 195 kts 258°
2026-04-25 23:34 59.68887 18.21712 2726 ft 164 kts 297°
2026-04-25 23:34 59.69132 18.19510 2471 ft 175 kts 275°
2026-04-25 23:35 59.68761 18.17125 2235 ft 182 kts 265°
2026-04-25 23:35 59.68474 18.14717 1977 ft 178 kts 269°
2026-04-25 23:35 59.68198 18.12374 1732 ft 170 kts 268°
2026-04-25 23:35 59.67929 18.10204 1515 ft 153 kts 269°
2026-04-25 23:36 59.67687 18.08283 1304 ft 138 kts 269°
2026-04-25 23:36 59.67539 18.07083 1154 ft 134 kts 268°
2026-04-25 23:36 59.67252 18.04723 860 ft 131 kts 263°
2026-04-25 23:36 59.67038 18.02974 695 ft 130 kts 261°
2026-04-25 23:37 59.66818 18.01256 519 ft 128 kts 260°
2026-04-25 23:37 59.66601 17.99550 338 ft 129 kts 259°
2026-04-25 23:37 59.66379 17.97831 168 ft 129 kts 258°
2026-04-25 23:37 59.66178 17.96239 122 ft 100 kts 256°
2026-04-25 23:38 59.66041 17.95174 121 ft 64 kts 256°
2026-04-25 23:38 59.65955 17.94485 122 ft 42 kts 256°
2026-04-25 23:38 59.65894 17.93996 120 ft 32 kts 256°
2026-04-25 23:38 59.65825 17.93702 116 ft 18 kts 229°
2026-04-25 23:39 59.65727 17.93503 112 ft 22 kts 208°
2026-04-25 23:39 59.65659 17.93629 113 ft 15 kts 80°
2026-04-25 23:39 59.65650 17.93818 114 ft 15 kts 143°
2026-04-25 23:39 59.65536 17.93882 113 ft 19 kts 165°
2026-04-25 23:40 59.65432 17.93933 113 ft 10 kts 166°
2026-04-25 23:40 59.65368 17.93967 113 ft 9 kts 168°
2026-04-25 23:40 59.65321 17.93910 112 ft 8 kts 239°
2026-04-25 23:40 59.65311 17.93848 112 ft 5 kts 255°
2026-04-25 23:41 59.65309 17.93838 112 ft 0 kts 255°